LEDGEWOOD Weather Reports


time (UTC)temp
F
wind
direction
speed
knots
gust
knots
rain 1hr
in
rain 24hr
in
rain mn
in
humidity
%
barometer
mb
20260508023100 46 0 0.0 0.9 0.00 0.01 0.00 66 1007.0
20260508021602 45 0 0.0 0.0 0.00 0.01 0.00 63 1006.9
20260508020105 46 0 0.0 0.0 0.00 0.01 0.00 63 1006.7
20260508014559 46 0 0.0 0.0 0.00 0.01 0.00 66 1006.3
20260508013100 46 0 0.0 0.0 0.00 0.01 0.00 63 1006.2
20260508011559 47 0 0.0 0.0 0.00 0.01 0.00 61 1006.2
20260508010100 48 0 0.0 0.0 0.00 0.01 0.00 58 1005.8
20260508004603 49 0 0.0 0.0 0.00 0.01 0.00 55 1005.6
20260508003105 50 0 0.0 0.0 0.00 0.01 0.00 50 1005.6
20260508001559 52 0 0.0 0.0 0.00 0.01 0.00 45 1005.3
20260508000100 54 0 0.0 0.9 0.00 0.01 0.00 41 1005.0
20260507234558 55 0 0.0 1.7 0.00 0.02 0.00 40 1005.0
20260507233100 56 0 0.0 1.7 0.00 0.02 0.00 39 1004.7
20260507231601 57 307 0.9 3.5 0.00 0.02 0.00 37 1004.7
20260507230107 57 262 1.7 4.3 0.00 0.02 0.00 35 1004.6
20260507224615 58 314 1.7 4.3 0.00 0.02 0.00 35 1004.4
20260507223100 58 198 2.6 7.0 0.00 0.02 0.00 35 1004.2
20260507221600 58 159 0.9 4.3 0.00 0.02 0.00 34 1004.1
20260507220059 59 278 0.9 5.2 0.00 0.02 0.00 35 1004.0
20260507214608 60 255 0.9 6.1 0.00 0.14 0.00 34 1004.0
20260507213103 60 245 1.7 5.2 0.00 0.14 0.00 33 1004.1
20260507211615 61 282 0.9 6.1 0.00 0.14 0.00 33 1004.0
20260507210106 60 16 1.7 4.3 0.00 0.14 0.00 34 1004.1
20260507204601 61 289 2.6 6.1 0.00 0.25 0.00 34 1003.8
20260507203110 61 224 1.7 5.2 0.00 0.25 0.00 34 1003.9
20260507201617 62 273 2.6 6.1 0.00 0.25 0.00 32 1003.8
20260507200110 62 262 2.6 7.8 0.00 0.25 0.00 34 1003.9
20260507194557 61 239 2.6 7.0 0.00 0.29 0.00 34 1004.0
20260507193059 62 267 1.7 5.2 0.00 0.29 0.00 34 1004.0
20260507191603 61 79 0.9 3.5 0.00 0.29 0.00 37 1004.2
20260507190108 60 285 3.5 6.1 0.00 0.29 0.00 36 1004.5
20260507184619 60 275 1.7 7.0 0.00 0.40 0.00 36 1004.7
20260507183058 62 295 2.6 6.1 0.00 0.40 0.00 35 1004.7
20260507181601 61 23 2.6 7.8 0.00 0.40 0.00 33 1004.7
20260507180059 61 345 1.7 7.0 0.00 0.40 0.00 34 1004.8
20260507174558 62 255 2.6 9.6 0.00 0.40 0.00 35 1004.7
20260507173103 62 278 3.5 7.0 0.00 0.40 0.00 38 1004.7
20260507171606 62 342 1.7 7.0 0.00 0.40 0.00 39 1004.6
20260507170104 62 290 2.6 7.0 0.00 0.40 0.00 39 1005.1
20260507164605 61 238 1.7 7.0 0.00 0.40 0.00 46 1005.1
20260507163058 60 144 0.9 4.3 0.00 0.40 0.00 50 1005.2
20260507161558 59 261 2.6 6.1 0.00 0.40 0.00 52 1005.5
20260507160058 61 304 1.7 4.3 0.00 0.40 0.00 52 1005.4
20260507154600 58 351 1.7 4.3 0.00 0.40 0.00 54 1005.8
20260507153106 59 228 0.9 5.2 0.00 0.40 0.00 59 1005.9
20260507151559 58 266 0.9 5.2 0.00 0.40 0.00 55 1006.1
20260507150058 58 277 1.7 5.2 0.00 0.40 0.00 59 1006.3
20260507144600 58 0 1.7 8.7 0.00 0.40 0.00 56 1006.1
20260507143107 57 262 2.6 7.0 0.00 0.40 0.00 58 1006.1
20260507141557 58 0 1.7 6.1 0.00 0.40 0.00 59 1006.0
20260507140100 58 257 1.7 6.1 0.00 0.40 0.00 61 1006.0
20260507134607 57 276 1.7 3.5 0.00 0.40 0.00 59 1005.9
20260507133134 57 96 1.7 5.2 0.00 0.40 0.00 60 1006.1
20260507131558 56 229 1.7 4.3 0.00 0.40 0.00 61 1006.2
20260507130108 55 281 1.7 5.2 0.00 0.40 0.00 67 1006.2
20260507124558 54 162 1.7 4.3 0.00 0.40 0.00 65 1006.2
20260507123106 53 241 0.9 4.3 0.00 0.40 0.00 65 1006.5
20260507121622 52 313 0.9 5.2 0.00 0.40 0.00 71 1006.7
20260507120109 51 200 0.0 2.6 0.00 0.40 0.00 75 1006.6
20260507114640 50 0 0.9 1.7 0.00 0.40 0.00 77 1006.6
20260507113105 48 0 0.0 0.9 0.00 0.40 0.00 83 1006.5
20260507111612 47 227 0.0 1.7 0.00 0.40 0.00 86 1006.5
20260507110109 47 0 0.0 0.0 0.00 0.40 0.00 86 1006.2
20260507104601 46 0 0.0 0.9 0.00 0.40 0.00 87 1006.2
20260507103101 46 0 0.0 1.7 0.00 0.40 0.00 86 1006.0
20260507101614 46 0 0.0 1.7 0.00 0.40 0.00 86 1006.1
20260507100104 46 0 0.0 0.9 0.00 0.40 0.00 87 1006.4
20260507094605 46 290 0.0 2.6 0.00 0.40 0.00 89 1006.2
20260507093101 47 0 0.9 4.3 0.00 0.40 0.00 87 1005.8
20260507091558 47 217 0.0 3.5 0.00 0.40 0.00 88 1005.9
20260507084602 47 0 0.0 1.7 0.00 0.40 0.00 90 1005.4
20260507083059 47 0 0.0 2.6 0.00 0.40 0.00 90 1005.4
20260507081601 47 304 0.0 1.7 0.00 0.40 0.00 89 1005.2
20260507080120 48 279 0.0 2.6 0.00 0.40 0.00 89 1005.8
20260507074558 48 236 0.0 2.6 0.00 0.40 0.00 89 1005.6
20260507073109 48 227 0.0 2.6 0.00 0.40 0.00 88 1005.3
20260507071558 49 206 0.9 2.6 0.00 0.40 0.00 88 1005.4
20260507070059 49 226 1.7 4.3 0.00 0.40 0.00 88 1005.2
20260507064605 49 276 0.0 5.2 0.00 0.40 0.00 90 1005.2
20260507063105 49 283 0.0 2.6 0.00 0.40 0.00 90 1005.1
20260507061559 49 261 0.9 3.5 0.00 0.40 0.00 90 1004.9
20260507060059 50 134 0.0 2.6 0.00 0.40 0.00 91 1005.3
20260507054558 50 0 0.0 2.6 0.00 0.40 0.00 91 1005.3
20260507053118 50 0 0.0 1.7 0.00 0.40 0.00 91 1005.0
20260507051605 50 233 0.0 1.7 0.00 0.40 0.00 92 1005.2
20260507050058 51 215 0.0 1.7 0.00 0.40 0.00 90 1004.9
20260507044601 51 283 0.9 4.3 0.00 0.40 0.00 91 1005.3
20260507043059 51 0 0.9 3.5 0.00 0.40 0.00 91 1005.3
20260507041600 52 255 0.9 6.1 0.01 0.40 0.00 92 1005.2
20260507034600 53 183 1.7 5.2 0.01 0.40 0.40 92 1004.6
20260507033101 55 275 1.7 5.2 0.01 0.40 0.40 94 1004.7
20260507031600 56 229 0.9 5.2 0.00 0.39 0.39 93 1004.7
20260507024609 58 305 0.9 6.1 0.00 0.39 0.39 95 1004.1